Time,TemperatureF,DewpointF,PressureIn,WindDirection,WindDirectionDegrees,WindSpeedMPH,WindSpeedGustMPH,Humidity,HourlyPrecipIn,Conditions,Clouds,dailyrainin,SoftwareType,DateUTC
2013-04-13 00:03:00,42.0,40.0,29.71,NE,49,4.0,12.0,91,0.01,,,0.54,,2013-04-13 04:03:00,
2013-04-13 00:12:00,42.0,40.0,29.71,NE,49,4.0,12.0,91,0.01,,,0.54,,2013-04-13 04:12:00,
2013-04-13 00:23:00,42.0,40.0,29.72,North,352,3.0,10.0,91,0.02,,,0.55,,2013-04-13 04:23:00,
2013-04-13 00:33:00,42.0,40.0,29.73,North,1,5.0,10.0,91,0.04,,,0.57,,2013-04-13 04:33:00,
2013-04-13 00:42:00,42.0,40.0,29.73,North,1,5.0,10.0,91,0.04,,,0.57,,2013-04-13 04:42:00,
2013-04-13 00:53:00,42.0,40.0,29.72,NNE,19,9.0,10.0,91,0.04,,,0.57,,2013-04-13 04:53:00,
2013-04-13 01:03:00,42.0,40.0,29.72,NE,37,5.0,8.0,91,0.04,,,0.57,,2013-04-13 05:03:00,
2013-04-13 01:12:00,42.0,40.0,29.72,NE,37,5.0,8.0,91,0.04,,,0.57,,2013-04-13 05:12:00,
2013-04-13 01:22:00,42.0,40.0,29.72,NNE,16,3.0,9.0,91,0.04,,,0.59,,2013-04-13 05:22:00,
2013-04-13 01:32:00,42.0,40.0,29.71,NNE,22,4.0,8.0,91,0.02,,,0.59,,2013-04-13 05:32:00,
2013-04-13 01:43:00,42.0,40.0,29.71,NNE,22,4.0,8.0,91,0.02,,,0.59,,2013-04-13 05:43:00,
2013-04-13 01:52:00,42.0,40.0,29.71,NNE,22,4.0,8.0,91,0.02,,,0.59,,2013-04-13 05:52:00,
2013-04-13 02:02:00,42.0,40.0,29.74,North,4,3.0,8.0,91,0.02,,,0.59,,2013-04-13 06:02:00,
2013-04-13 02:12:00,42.0,40.0,29.74,North,4,3.0,8.0,91,0.02,,,0.59,,2013-04-13 06:12:00,
2013-04-13 02:24:00,42.0,40.0,29.74,North,359,3.0,8.0,91,0.00,,,0.59,,2013-04-13 06:24:00,
2013-04-13 02:35:00,42.0,39.0,29.74,NE,49,3.0,9.0,90,0.00,,,0.59,,2013-04-13 06:35:00,
2013-04-13 02:49:00,42.0,39.0,29.74,NE,49,3.0,9.0,90,0.00,,,0.59,,2013-04-13 06:49:00,
2013-04-13 03:07:00,42.0,39.0,29.76,NNW,335,0.0,5.0,90,0.00,,,0.59,,2013-04-13 07:07:00,
2013-04-13 03:15:00,42.0,39.0,29.76,NNW,335,0.0,5.0,90,0.00,,,0.59,,2013-04-13 07:15:00,
2013-04-13 03:24:00,42.0,39.0,29.77,NNW,345,3.0,4.0,90,0.00,,,0.59,,2013-04-13 07:24:00,
2013-04-13 03:35:00,42.0,39.0,29.77,NNW,347,4.0,8.0,90,0.00,,,0.59,,2013-04-13 07:35:00,
2013-04-13 03:45:00,42.0,39.0,29.77,NNW,347,4.0,8.0,90,0.00,,,0.59,,2013-04-13 07:45:00,
2013-04-13 03:54:00,42.0,39.0,29.78,North,1,0.0,8.0,90,0.00,,,0.59,,2013-04-13 07:54:00,
2013-04-13 04:07:00,42.0,39.0,29.77,North,349,5.0,10.0,89,0.00,,,0.59,,2013-04-13 08:07:00,
2013-04-13 04:25:00,42.0,39.0,29.78,North,359,3.0,5.0,89,0.00,,,0.59,,2013-04-13 08:25:00,
2013-04-13 04:35:00,42.0,39.0,29.79,NW,325,3.0,5.0,89,0.00,,,0.59,,2013-04-13 08:35:00,
2013-04-13 04:45:00,42.0,39.0,29.79,NW,325,3.0,5.0,89,0.00,,,0.59,,2013-04-13 08:45:00,
2013-04-13 04:53:00,42.0,39.0,29.79,North,1,4.0,4.0,88,0.00,,,0.59,,2013-04-13 08:53:00,
2013-04-13 05:05:00,42.0,38.0,29.79,NE,39,0.0,5.0,87,0.00,,,0.59,,2013-04-13 09:05:00,
2013-04-13 05:15:00,42.0,38.0,29.79,NE,39,0.0,5.0,87,0.00,,,0.59,,2013-04-13 09:15:00,
2013-04-13 05:24:00,42.0,38.0,29.80,NE,45,3.0,3.0,87,0.00,,,0.59,,2013-04-13 09:24:00,
2013-04-13 05:37:00,41.0,37.0,29.79,North,8,0.0,4.0,87,0.00,,,0.59,,2013-04-13 09:37:00,
2013-04-13 05:50:00,41.0,37.0,29.79,North,8,0.0,4.0,87,0.00,,,0.59,,2013-04-13 09:50:00,
2013-04-13 06:05:00,41.0,38.0,29.80,North,8,1.0,3.0,88,0.00,,,0.59,,2013-04-13 10:05:00,
2013-04-13 06:15:00,41.0,38.0,29.80,North,8,1.0,3.0,88,0.00,,,0.59,,2013-04-13 10:15:00,
2013-04-13 06:24:00,41.0,38.0,29.80,North,8,1.0,3.0,88,0.00,,,0.59,,2013-04-13 10:24:00,
2013-04-13 06:37:00,41.0,38.0,29.80,North,7,3.0,3.0,88,0.00,,,0.59,,2013-04-13 10:37:00,
2013-04-13 06:56:00,41.0,38.0,29.80,North,7,3.0,3.0,88,0.00,,,0.59,,2013-04-13 10:56:00,
2013-04-13 07:24:00,40.0,37.0,29.82,North,7,0.0,2.0,89,0.00,,,0.59,,2013-04-13 11:24:00,
2013-04-13 07:35:00,40.0,37.0,29.83,North,6,0.0,3.0,89,0.00,,,0.59,,2013-04-13 11:35:00,
2013-04-13 07:45:00,40.0,37.0,29.83,North,6,0.0,3.0,89,0.00,,,0.59,,2013-04-13 11:45:00,
2013-04-13 08:08:00,41.0,38.0,29.82,North,6,0.0,0.0,90,0.00,,,0.58,,2013-04-13 12:08:00,
2013-04-13 08:15:00,41.0,38.0,29.82,North,6,0.0,0.0,90,0.00,,,0.58,,2013-04-13 12:15:00,
2013-04-13 08:25:00,41.0,38.0,29.82,North,6,0.0,0.0,90,0.00,,,0.58,,2013-04-13 12:25:00,
2013-04-13 08:57:00,43.0,39.0,29.84,NNW,341,3.0,5.0,87,0.00,,,0.57,,2013-04-13 12:57:00,
2013-04-13 09:08:00,44.0,40.0,29.84,NNW,341,4.0,4.0,85,0.00,,,0.55,,2013-04-13 13:08:00,
2013-04-13 09:16:00,44.0,40.0,29.84,NNW,341,4.0,4.0,85,0.00,,,0.55,,2013-04-13 13:16:00,
2013-04-13 09:30:00,44.0,39.0,29.85,NNW,342,0.0,1.0,83,0.00,,,0.55,,2013-04-13 13:30:00,
2013-04-13 09:48:00,44.0,39.0,29.85,NNW,342,0.0,1.0,83,0.00,,,0.55,,2013-04-13 13:48:00,
2013-04-13 10:05:00,47.0,40.0,29.86,North,352,2.0,3.0,77,0.00,,,0.40,,2013-04-13 14:05:00,
2013-04-13 10:15:00,47.0,40.0,29.86,North,352,2.0,3.0,77,0.00,,,0.40,,2013-04-13 14:15:00,
2013-04-13 10:24:00,48.0,40.0,29.86,North,352,2.0,3.0,75,0.00,,,0.39,,2013-04-13 14:24:00,
2013-04-13 10:46:00,48.0,40.0,29.86,WNW,289,0.0,3.0,74,0.00,,,0.37,,2013-04-13 14:46:00,
2013-04-13 10:55:00,48.0,40.0,29.87,WNW,289,1.0,3.0,74,0.00,,,0.30,,2013-04-13 14:55:00,
2013-04-13 11:05:00,48.0,39.0,29.86,NW,321,9.0,15.0,70,0.00,,,0.27,,2013-04-13 15:05:00,
2013-04-13 11:15:00,48.0,39.0,29.86,NW,321,9.0,15.0,70,0.00,,,0.27,,2013-04-13 15:15:00,
2013-04-13 11:29:00,48.0,37.0,29.87,North,359,5.0,16.0,65,0.00,,,0.22,,2013-04-13 15:29:00,
2013-04-13 11:37:00,47.0,37.0,29.87,NNW,327,6.0,11.0,68,0.00,,,0.17,,2013-04-13 15:37:00,
2013-04-13 11:44:00,47.0,37.0,29.87,NNW,327,6.0,11.0,68,0.00,,,0.17,,2013-04-13 15:44:00,
2013-04-13 12:15:00,48.0,34.0,29.87,NNW,335,1.0,4.0,59,0.00,,,0.12,,2013-04-13 16:15:00,
2013-04-13 12:25:00,48.0,34.0,29.87,NNW,335,1.0,4.0,59,0.00,,,0.12,,2013-04-13 16:25:00,
2013-04-13 12:36:00,51.0,35.0,29.86,WSW,254,1.0,7.0,55,0.00,,,0.11,,2013-04-13 16:36:00,
2013-04-13 12:46:00,51.0,35.0,29.86,WSW,254,1.0,7.0,55,0.00,,,0.11,,2013-04-13 16:46:00,
2013-04-13 12:58:00,51.0,35.0,29.86,WSW,254,1.0,7.0,55,0.00,,,0.11,,2013-04-13 16:58:00,
2013-04-13 13:08:00,54.0,34.0,29.85,NW,305,0.0,4.0,47,0.00,,,0.08,,2013-04-13 17:08:00,
2013-04-13 13:22:00,54.0,34.0,29.85,NW,305,0.0,4.0,47,0.00,,,0.08,,2013-04-13 17:22:00,
2013-04-13 13:38:00,54.0,33.0,29.84,North,5,6.0,10.0,44,0.00,,,0.08,,2013-04-13 17:38:00,
2013-04-13 13:44:00,54.0,33.0,29.84,North,5,6.0,10.0,44,0.00,,,0.08,,2013-04-13 17:44:00,
2013-04-13 13:59:00,55.0,32.0,29.83,NNW,335,9.0,11.0,42,0.00,,,0.08,,2013-04-13 17:59:00,
2013-04-13 14:07:00,55.0,32.0,29.83,West,280,8.0,10.0,41,0.00,,,0.08,,2013-04-13 18:07:00,
2013-04-13 14:15:00,55.0,32.0,29.83,West,280,8.0,10.0,41,0.00,,,0.08,,2013-04-13 18:15:00,
2013-04-13 14:24:00,55.0,32.0,29.83,NW,326,4.0,8.0,42,0.00,,,0.07,,2013-04-13 18:24:00,
2013-04-13 14:33:00,56.0,33.0,29.83,SW,233,3.0,10.0,42,0.00,,,0.07,,2013-04-13 18:33:00,
2013-04-13 14:42:00,56.0,33.0,29.83,SW,233,3.0,10.0,42,0.00,,,0.07,,2013-04-13 18:42:00,
2013-04-13 14:52:00,56.0,33.0,29.83,SW,233,3.0,10.0,42,0.00,,,0.07,,2013-04-13 18:52:00,
2013-04-13 15:03:00,57.0,33.0,29.83,SW,221,2.0,5.0,40,0.00,,,0.06,,2013-04-13 19:03:00,
2013-04-13 15:12:00,57.0,33.0,29.83,SW,221,2.0,5.0,40,0.00,,,0.06,,2013-04-13 19:12:00,
2013-04-13 15:23:00,57.0,32.0,29.82,SW,224,1.0,8.0,38,0.00,,,0.06,,2013-04-13 19:23:00,
2013-04-13 15:32:00,57.0,32.0,29.83,SW,231,0.0,3.0,39,0.00,,,0.06,,2013-04-13 19:32:00,
2013-04-13 15:42:00,57.0,32.0,29.83,SW,231,0.0,3.0,39,0.00,,,0.06,,2013-04-13 19:42:00,
2013-04-13 15:52:00,58.0,32.0,29.83,SSW,209,6.0,11.0,37,0.00,,,0.06,,2013-04-13 19:52:00,
2013-04-13 16:02:00,58.0,32.0,29.83,West,268,9.0,12.0,37,0.00,,,0.06,,2013-04-13 20:02:00,
2013-04-13 16:12:00,58.0,32.0,29.83,West,268,9.0,12.0,37,0.00,,,0.06,,2013-04-13 20:12:00,
2013-04-13 16:22:00,58.0,32.0,29.83,West,268,9.0,12.0,37,0.00,,,0.06,,2013-04-13 20:22:00,
2013-04-13 16:32:00,58.0,33.0,29.82,WNW,286,4.0,8.0,38,0.00,,,0.06,,2013-04-13 20:32:00,
2013-04-13 16:42:00,58.0,33.0,29.82,WNW,286,4.0,8.0,38,0.00,,,0.06,,2013-04-13 20:42:00,
2013-04-13 16:53:00,58.0,31.0,29.81,SW,229,9.0,12.0,36,0.00,,,0.06,,2013-04-13 20:53:00,
2013-04-13 17:02:00,58.0,31.0,29.81,SW,229,9.0,12.0,36,0.00,,,0.06,,2013-04-13 21:02:00,
2013-04-13 17:12:00,58.0,31.0,29.81,SW,229,9.0,12.0,36,0.00,,,0.06,,2013-04-13 21:12:00,
2013-04-13 17:22:00,59.0,32.0,29.82,West,271,8.0,16.0,36,0.00,,,0.06,,2013-04-13 21:22:00,
2013-04-13 17:33:00,59.0,32.0,29.82,West,271,8.0,16.0,36,0.00,,,0.06,,2013-04-13 21:33:00,
2013-04-13 17:43:00,59.0,32.0,29.82,West,271,8.0,16.0,36,0.00,,,0.06,,2013-04-13 21:43:00,
2013-04-13 17:52:00,58.0,33.0,29.83,SW,225,8.0,8.0,38,0.00,,,0.06,,2013-04-13 21:52:00,
2013-04-13 18:03:00,58.0,33.0,29.84,West,279,3.0,10.0,38,0.00,,,0.06,,2013-04-13 22:03:00,
2013-04-13 18:13:00,58.0,33.0,29.84,West,279,3.0,10.0,38,0.00,,,0.06,,2013-04-13 22:13:00,
2013-04-13 18:22:00,58.0,33.0,29.84,SW,224,0.0,4.0,38,0.00,,,0.06,,2013-04-13 22:22:00,
2013-04-13 18:33:00,58.0,33.0,29.83,WSW,238,5.0,13.0,38,0.00,,,0.06,,2013-04-13 22:33:00,
2013-04-13 18:42:00,58.0,33.0,29.83,WSW,238,5.0,13.0,38,0.00,,,0.06,,2013-04-13 22:42:00,
2013-04-13 18:52:00,58.0,32.0,29.83,SW,221,8.0,11.0,37,0.00,,,0.06,,2013-04-13 22:52:00,
2013-04-13 19:02:00,58.0,32.0,29.83,SW,221,8.0,11.0,37,0.00,,,0.06,,2013-04-13 23:02:00,
2013-04-13 19:12:00,58.0,32.0,29.83,SW,221,8.0,11.0,37,0.00,,,0.06,,2013-04-13 23:12:00,
2013-04-13 19:22:00,58.0,32.0,29.83,SW,221,8.0,11.0,37,0.00,,,0.06,,2013-04-13 23:22:00,
2013-04-13 19:33:00,56.0,31.0,29.85,West,280,1.0,10.0,39,0.00,,,0.06,,2013-04-13 23:33:00,
2013-04-13 19:43:00,56.0,31.0,29.85,West,280,1.0,10.0,39,0.00,,,0.06,,2013-04-13 23:43:00,
2013-04-13 19:53:00,56.0,32.0,29.86,West,266,9.0,10.0,40,0.00,,,0.06,,2013-04-13 23:53:00,
2013-04-13 20:03:00,56.0,32.0,29.86,WNW,287,3.0,6.0,40,0.00,,,0.06,,2013-04-14 00:03:00,
2013-04-13 20:12:00,56.0,32.0,29.86,WNW,287,3.0,6.0,40,0.00,,,0.06,,2013-04-14 00:12:00,
2013-04-13 20:22:00,55.0,32.0,29.87,WNW,285,2.0,3.0,41,0.00,,,0.06,,2013-04-14 00:22:00,
2013-04-13 20:32:00,54.0,32.0,29.87,NW,305,0.0,3.0,43,0.00,,,0.06,,2013-04-14 00:32:00,
2013-04-13 20:42:00,54.0,32.0,29.87,NW,305,0.0,3.0,43,0.00,,,0.06,,2013-04-14 00:42:00,
2013-04-13 20:52:00,54.0,33.0,29.88,NW,311,2.0,4.0,44,0.00,,,0.06,,2013-04-14 00:52:00,
2013-04-13 21:02:00,53.0,32.0,29.88,NW,311,0.0,3.0,44,0.00,,,0.06,,2013-04-14 01:02:00,
2013-04-13 21:12:00,53.0,32.0,29.88,NW,311,0.0,3.0,44,0.00,,,0.06,,2013-04-14 01:12:00,
2013-04-13 21:22:00,52.0,32.0,29.89,NW,314,1.0,3.0,46,0.00,,,0.06,,2013-04-14 01:22:00,
2013-04-13 21:32:00,52.0,32.0,29.89,NW,314,1.0,3.0,46,0.00,,,0.06,,2013-04-14 01:32:00,
2013-04-13 21:42:00,52.0,32.0,29.89,NW,314,1.0,3.0,46,0.00,,,0.06,,2013-04-14 01:42:00,
2013-04-13 21:52:00,52.0,32.0,29.90,NNW,333,1.0,3.0,47,0.00,,,0.06,,2013-04-14 01:52:00,
2013-04-13 22:02:00,51.0,31.0,29.91,NNW,335,2.0,3.0,47,0.00,,,0.06,,2013-04-14 02:02:00,
2013-04-13 22:12:00,51.0,32.0,29.91,NNW,334,0.0,2.0,48,0.00,,,0.06,,2013-04-14 02:12:00,
2013-04-13 22:22:00,51.0,32.0,29.91,NNW,334,0.0,2.0,48,0.00,,,0.06,,2013-04-14 02:22:00,
2013-04-13 22:32:00,51.0,32.0,29.92,NNW,333,0.0,0.0,48,0.00,,,0.06,,2013-04-14 02:32:00,
2013-04-13 22:42:00,51.0,32.0,29.92,NNW,333,0.0,0.0,48,0.00,,,0.06,,2013-04-14 02:42:00,
2013-04-13 22:52:00,51.0,32.0,29.92,NNW,333,0.0,0.0,48,0.00,,,0.06,,2013-04-14 02:52:00,
2013-04-13 23:03:00,51.0,39.0,29.93,NNW,335,0.0,3.0,64,0.00,,,0.06,,2013-04-14 03:03:00,
2013-04-13 23:12:00,51.0,39.0,29.93,NNW,335,0.0,3.0,64,0.00,,,0.06,,2013-04-14 03:12:00,
2013-04-13 23:22:00,51.0,39.0,29.93,NNW,335,0.0,3.0,64,0.00,,,0.06,,2013-04-14 03:22:00,
2013-04-13 23:33:00,50.0,39.0,29.93,NNW,336,0.0,2.0,67,0.00,,,0.06,,2013-04-14 03:33:00,
2013-04-13 23:42:00,50.0,39.0,29.93,NNW,336,0.0,2.0,67,0.00,,,0.06,,2013-04-14 03:42:00,
2013-04-13 23:53:00,50.0,39.0,29.93,NNW,336,0.0,2.0,67,0.00,,,0.06,,2013-04-14 03:53:00,